Location: Edoum�
(0.9447°N, 10.6482°E)
Time: 22:11:42
(UTC+00:00)

Ariane 3 Deb - Pass Details

Date: 06 October 2020
Orbit: 230 x 18400 km, 6.8° (Epoch: 26 October)

Event Time Altitude Azimuth Distance (km) Brightness Sun altitude
Rises 20:28:09 0° 263° (W) 7,314 8.6 -50.5°
Reaches altitude 10° 20:35:39 10° 263° (W) 4,120 7.2 -52.4°
Enters shadow 20:38:40 17° 263° (W) 2,706 6.1 -53.1°
